| time (UTC) | temp F | wind direction | speed MPH | gust MPH | rain 1hr in | rain 24hr in | rain mn in | humidity % | barometer mb |
| 20260504043822 | 46 | 143 | 1.0 | 4.0 | 0.00 | 0.00 | 0.00 | 64 | 1006.3 |
| 20260504043336 | 46 | 321 | 1.0 | 6.0 | 0.00 | 0.00 | 0.00 | 63 | 1006.3 |
| 20260504042824 | 46 | 32 | 2.0 | 6.0 | 0.00 | 0.00 | 0.00 | 61 | 1006.3 |
| 20260504042316 | 46 | 192 | 2.0 | 6.0 | 0.00 | 0.00 | 0.00 | 59 | 1006.3 |
| 20260504041844 | 46 | 99 | 2.0 | 5.0 | 0.00 | 0.00 | 0.00 | 58 | 1006.3 |
| 20260504041327 | 46 | 134 | 2.0 | 4.0 | 0.00 | 0.00 | 0.00 | 57 | 1006.2 |
| 20260504040839 | 46 | 165 | 1.0 | 4.0 | 0.00 | 0.00 | 0.00 | 55 | 1006.2 |
| 20260504040317 | 46 | 115 | 2.0 | 4.0 | 0.00 | 0.00 | 0.00 | 54 | 1006.2 |
| 20260504035836 | 46 | 123 | 2.0 | 4.0 | 0.00 | 0.00 | 0.00 | 53 | 1006.1 |
| 20260504035349 | 46 | 108 | 1.0 | 4.0 | 0.00 | 0.00 | 0.00 | 52 | 1006.1 |
| 20260504034825 | 46 | 112 | 1.0 | 4.0 | 0.00 | 0.00 | 0.00 | 52 | 1006.1 |
| 20260504034344 | 46 | 140 | 2.0 | 4.0 | 0.00 | 0.00 | 0.00 | 52 | 1006.0 |
| 20260504033820 | 46 | 123 | 1.0 | 3.0 | 0.00 | 0.00 | 0.00 | 50 | 1006.0 |
| 20260504033347 | 46 | 145 | 1.0 | 4.0 | 0.00 | 0.00 | 0.00 | 50 | 1006.0 |
| 20260504032824 | 47 | 147 | 2.0 | 4.0 | 0.00 | 0.00 | 0.00 | 50 | 1005.9 |
| 20260504032334 | 47 | 111 | 0.0 | 4.0 | 0.00 | 0.00 | 0.00 | 47 | 1005.9 |
| 20260504031813 | 47 | 87 | 2.0 | 4.0 | 0.00 | 0.00 | 0.00 | 49 | 1005.9 |
| 20260504031345 | 47 | 132 | 2.0 | 4.0 | 0.00 | 0.00 | 0.00 | 46 | 1005.9 |
| 20260504030858 | 47 | 152 | 2.0 | 3.0 | 0.00 | 0.00 | 0.00 | 47 | 1005.9 |
| 20260504030322 | 47 | 136 | 2.0 | 4.0 | 0.00 | 0.00 | 0.00 | 44 | 1005.9 |
| 20260504025814 | 47 | 121 | 1.0 | 4.0 | 0.00 | 0.00 | 0.00 | 45 | 1005.8 |
| 20260504025328 | 46 | 171 | 2.0 | 3.0 | 0.00 | 0.00 | 0.00 | 45 | 1005.8 |
| 20260504024830 | 46 | 101 | 2.0 | 3.0 | 0.00 | 0.00 | 0.00 | 49 | 1005.8 |
| 20260504024322 | 46 | 10 | 1.0 | 3.0 | 0.00 | 0.00 | 0.00 | 44 | 1005.8 |
| 20260504023830 | 46 | 119 | 2.0 | 3.0 | 0.00 | 0.00 | 0.00 | 46 | 1005.8 |
| 20260504023339 | 46 | 105 | 1.0 | 2.0 | 0.00 | 0.00 | 0.00 | 45 | 1005.8 |
| 20260504022825 | 46 | 105 | 1.0 | 2.0 | 0.00 | 0.00 | 0.00 | 47 | 1005.9 |
| 20260504022353 | 46 | 103 | 2.0 | 2.0 | 0.00 | 0.00 | 0.00 | 46 | 1005.9 |
| 20260504021836 | 45 | 119 | 1.0 | 2.0 | 0.00 | 0.00 | 0.00 | 44 | 1005.9 |
| 20260504021335 | 45 | 119 | 1.0 | 2.0 | 0.00 | 0.00 | 0.00 | 46 | 1006.1 |
| 20260504020832 | 45 | 119 | 1.0 | 3.0 | 0.00 | 0.00 | 0.00 | 47 | 1006.1 |
| 20260504020323 | 45 | 103 | 2.0 | 3.0 | 0.00 | 0.00 | 0.00 | 46 | 1006.1 |
| 20260504015824 | 45 | 103 | 2.0 | 3.0 | 0.00 | 0.00 | 0.00 | 49 | 1006.0 |
| 20260504015333 | 45 | 346 | 2.0 | 2.0 | 0.00 | 0.00 | 0.00 | 45 | 1006.0 |
| 20260504014813 | 45 | 346 | 1.0 | 2.0 | 0.00 | 0.00 | 0.00 | 45 | 1006.0 |
| 20260504014351 | 45 | 346 | 0.0 | 2.0 | 0.00 | 0.00 | 0.00 | 45 | 1005.9 |
| 20260504013903 | 45 | 346 | 1.0 | 2.0 | 0.00 | 0.00 | 0.00 | 43 | 1005.9 |
| 20260504013322 | 45 | 346 | 0.0 | 2.0 | 0.00 | 0.00 | 0.00 | 44 | 1005.9 |
| 20260504012817 | 45 | 346 | 1.0 | 2.0 | 0.00 | 0.00 | 0.00 | 47 | 1005.8 |
| 20260504012332 | 45 | 346 | 1.0 | 2.0 | 0.00 | 0.00 | 0.00 | 44 | 1005.8 |
| 20260504011828 | 46 | 346 | 1.0 | 2.0 | 0.00 | 0.00 | 0.00 | 43 | 1005.8 |
| 20260504011316 | 46 | 346 | 0.0 | 1.0 | 0.00 | 0.00 | 0.00 | 45 | 1005.7 |
| 20260504010830 | 46 | 346 | 1.0 | 2.0 | 0.00 | 0.00 | 0.00 | 43 | 1005.7 |
| 20260504010342 | 45 | 346 | 1.0 | 2.0 | 0.00 | 0.00 | 0.00 | 44 | 1005.7 |
| 20260504005834 | 45 | 346 | 2.0 | 5.0 | 0.00 | 0.00 | 0.00 | 44 | 1005.4 |
| 20260504005314 | 45 | 346 | 1.0 | 5.0 | 0.00 | 0.00 | 0.00 | 45 | 1005.4 |
| 20260504004825 | 45 | 329 | 1.0 | 3.0 | 0.00 | 0.00 | 0.00 | 46 | 1005.4 |
| 20260504004334 | 45 | 329 | 1.0 | 3.0 | 0.00 | 0.00 | 0.00 | 45 | 1005.2 |
| 20260504003819 | 45 | 310 | 0.0 | 1.0 | 0.00 | 0.00 | 0.00 | 49 | 1005.2 |
| 20260504003315 | 45 | 310 | 0.0 | 1.0 | 0.00 | 0.00 | 0.00 | 51 | 1005.2 |
| 20260504002834 | 45 | 310 | 0.0 | 2.0 | 0.00 | 0.00 | 0.00 | 48 | 1004.8 |
| 20260504002335 | 46 | 310 | 1.0 | 2.0 | 0.00 | 0.00 | 0.00 | 50 | 1004.8 |
| 20260504001820 | 46 | 310 | 1.0 | 2.0 | 0.00 | 0.00 | 0.00 | 49 | 1004.8 |
| 20260504001341 | 47 | 310 | 1.0 | 2.0 | 0.00 | 0.00 | 0.00 | 45 | 1004.6 |
| 20260504000840 | 48 | 310 | 1.0 | 1.0 | 0.00 | 0.00 | 0.00 | 45 | 1004.6 |
| 20260504000328 | 48 | 310 | 0.0 | 0.0 | 0.00 | 0.00 | 0.00 | 46 | 1004.6 |
| 20260503235822 | 49 | 310 | 0.0 | 0.0 | 0.00 | 0.00 | 0.00 | 45 | 1004.3 |
| 20260503235321 | 49 | 310 | 0.0 | 1.0 | 0.00 | 0.00 | 0.00 | 41 | 1004.3 |
| 20260503234816 | 50 | 310 | 0.0 | 1.0 | 0.00 | 0.00 | 0.00 | 40 | 1004.3 |
| 20260503234351 | 50 | 310 | 0.0 | 1.0 | 0.00 | 0.00 | 0.00 | 40 | 1004.2 |
| 20260503233837 | 50 | 310 | 0.0 | 1.0 | 0.00 | 0.00 | 0.00 | 40 | 1004.2 |
| 20260503233327 | 51 | 310 | 0.0 | 3.0 | 0.00 | 0.00 | 0.00 | 40 | 1004.2 |
| 20260503232816 | 51 | 310 | 0.0 | 3.0 | 0.00 | 0.00 | 0.00 | 39 | 1004.0 |
| 20260503232337 | 51 | 310 | 1.0 | 4.0 | 0.00 | 0.00 | 0.00 | 39 | 1004.0 |
| 20260503231814 | 51 | 292 | 2.0 | 4.0 | 0.00 | 0.00 | 0.00 | 39 | 1004.0 |
| 20260503231318 | 51 | 303 | 0.0 | 3.0 | 0.00 | 0.00 | 0.00 | 39 | 1004.0 |
| 20260503230830 | 52 | 257 | 1.0 | 7.0 | 0.00 | 0.00 | 0.00 | 39 | 1004.0 |
| 20260503230312 | 52 | 5 | 4.0 | 7.0 | 0.00 | 0.00 | 0.00 | 38 | 1004.0 |
| 20260503225834 | 52 | 327 | 3.0 | 6.0 | 0.00 | 0.00 | 0.00 | 37 | 1003.8 |
| 20260503225312 | 52 | 329 | 4.0 | 6.0 | 0.00 | 0.00 | 0.00 | 39 | 1003.8 |
| 20260503224822 | 52 | 325 | 3.0 | 7.0 | 0.00 | 0.00 | 0.00 | 37 | 1003.8 |
| 20260503224333 | 52 | 323 | 4.0 | 7.0 | 0.00 | 0.00 | 0.00 | 36 | 1003.9 |
| 20260503223821 | 52 | 258 | 1.0 | 8.0 | 0.00 | 0.00 | 0.00 | 38 | 1003.9 |
| 20260503223330 | 52 | 315 | 3.0 | 8.0 | 0.00 | 0.00 | 0.00 | 38 | 1003.9 |
| 20260503222841 | 52 | 292 | 2.0 | 9.0 | 0.00 | 0.00 | 0.00 | 38 | 1004.0 |
| 20260503222322 | 52 | 333 | 5.0 | 9.0 | 0.00 | 0.00 | 0.00 | 36 | 1004.0 |
| 20260503221831 | 53 | 292 | 3.0 | 7.0 | 0.00 | 0.00 | 0.00 | 37 | 1004.0 |
| 20260503221346 | 53 | 360 | 4.0 | 7.0 | 0.00 | 0.00 | 0.00 | 38 | 1004.0 |
| 20260503220835 | 53 | 325 | 327.0 | 10.0 | 0.00 | 0.00 | 0.00 | 38 | 1004.0 |
| 20260503220315 | 0 | 0.0 | 0.0 | 0.00 | 0.00 | 0.00 | 1004.0 | ||
| 20260503215818 | 0 | 0.0 | 0.0 | 0.00 | 0.00 | 0.00 | 1004.0 | ||
| 20260503215323 | 0 | 0.0 | 0.0 | 0.00 | 0.00 | 0.00 | 1004.0 | ||
| 20260503214331 | 54 | 319 | 6.0 | 14.0 | 0.00 | 0.00 | 0.00 | 37 | 1004.0 |
| 20260503213814 | 54 | 325 | 3.0 | 10.0 | 0.00 | 0.00 | 0.00 | 38 | 1004.0 |
| 20260503213314 | 54 | 281 | 4.0 | 10.0 | 0.00 | 0.00 | 0.00 | 38 | 1004.0 |
| 20260503212812 | 53 | 9 | 5.0 | 14.0 | 0.00 | 0.00 | 0.00 | 39 | 1004.2 |
| 20260503212327 | 54 | 304 | 9.0 | 14.0 | 0.00 | 0.00 | 0.00 | 36 | 1004.2 |
| 20260503211839 | 54 | 313 | 5.0 | 12.0 | 0.00 | 0.00 | 0.00 | 38 | 1004.2 |
| 20260503211346 | 54 | 327 | 7.0 | 12.0 | 0.00 | 0.00 | 0.00 | 39 | 1004.2 |
| 20260503210835 | 53 | 274 | 3.0 | 12.0 | 0.00 | 0.00 | 0.00 | 39 | 1004.2 |
| 20260503210359 | 52 | 333 | 5.0 | 12.0 | 0.00 | 0.00 | 0.00 | 41 | 1004.2 |
| 20260503205824 | 52 | 331 | 8.0 | 12.0 | 0.00 | 0.00 | 0.00 | 37 | 1004.2 |
| 20260503205323 | 53 | 319 | 6.0 | 11.0 | 0.00 | 0.00 | 0.00 | 40 | 1004.2 |
| 20260503204826 | 53 | 280 | 4.0 | 11.0 | 0.00 | 0.00 | 0.00 | 43 | 1004.2 |
| 20260503204318 | 52 | 278 | 5.0 | 11.0 | 0.00 | 0.00 | 0.00 | 41 | 1004.2 |
| 20260503203827 | 51 | 162 | 3.0 | 10.0 | 0.00 | 0.00 | 0.00 | 43 | 1004.2 |
| 20260503203354 | 51 | 345 | 4.0 | 12.0 | 0.00 | 0.00 | 0.00 | 42 | 1004.2 |
| 20260503202820 | 51 | 303 | 4.0 | 15.0 | 0.00 | 0.00 | 0.00 | 42 | 1004.3 |
| 20260503202321 | 52 | 310 | 6.0 | 15.0 | 0.00 | 0.00 | 0.00 | 43 | 1004.3 |
| 20260503201847 | 51 | 319 | 5.0 | 15.0 | 0.00 | 0.00 | 0.00 | 42 | 1004.3 |
| 20260503201315 | 51 | 342 | 7.0 | 9.0 | 0.00 | 0.00 | 0.00 | 42 | 1004.4 |
| 20260503200824 | 51 | 289 | 3.0 | 13.0 | 0.00 | 0.00 | 0.00 | 42 | 1004.4 |
| 20260503200333 | 51 | 321 | 7.0 | 13.0 | 0.00 | 0.00 | 0.00 | 42 | 1004.4 |
| 20260503195814 | 50 | 261 | 4.0 | 7.0 | 0.00 | 0.00 | 0.00 | 47 | 1004.6 |
| 20260503195329 | 50 | 12 | 2.0 | 6.0 | 0.00 | 0.00 | 0.00 | 44 | 1004.6 |
| 20260503194821 | 50 | 305 | 4.0 | 6.0 | 0.00 | 0.00 | 0.00 | 45 | 1004.6 |
| 20260503194326 | 50 | 286 | 4.0 | 12.0 | 0.00 | 0.00 | 0.00 | 43 | 1004.8 |
| 20260503193842 | 50 | 267 | 5.0 | 13.0 | 0.00 | 0.00 | 0.00 | 45 | 1004.8 |
| 20260503193325 | 50 | 324 | 7.0 | 13.0 | 0.00 | 0.00 | 0.00 | 42 | 1004.8 |
| 20260503192840 | 50 | 285 | 2.0 | 13.0 | 0.00 | 0.00 | 0.00 | 43 | 1004.9 |
| 20260503192330 | 50 | 293 | 5.0 | 13.0 | 0.00 | 0.00 | 0.00 | 43 | 1004.9 |
| 20260503191826 | 51 | 340 | 4.0 | 11.0 | 0.00 | 0.00 | 0.00 | 43 | 1004.9 |
| 20260503191344 | 51 | 25 | 5.0 | 10.0 | 0.00 | 0.00 | 0.00 | 46 | 1005.2 |
| 20260503190844 | 50 | 252 | 2.0 | 10.0 | 0.00 | 0.00 | 0.00 | 46 | 1005.2 |
| 20260503190333 | 49 | 277 | 2.0 | 10.0 | 0.00 | 0.00 | 0.00 | 48 | 1005.2 |
| 20260503185842 | 49 | 227 | 4.0 | 12.0 | 0.00 | 0.00 | 0.00 | 45 | 1005.3 |
| 20260503185336 | 49 | 269 | 8.0 | 12.0 | 0.00 | 0.00 | 0.00 | 43 | 1005.3 |
| 20260503184845 | 50 | 326 | 6.0 | 9.0 | 0.00 | 0.00 | 0.00 | 44 | 1005.3 |
| 20260503184315 | 50 | 317 | 4.0 | 13.0 | 0.00 | 0.00 | 0.00 | 49 | 1005.3 |
| 20260503183816 | 49 | 328 | 7.0 | 12.0 | 0.00 | 0.00 | 0.00 | 47 | 1005.3 |
| 20260503183313 | 49 | 294 | 5.0 | 14.0 | 0.00 | 0.00 | 0.00 | 46 | 1005.3 |
| 20260503182823 | 49 | 338 | 5.0 | 14.0 | 0.00 | 0.00 | 0.00 | 45 | 1005.3 |
| 20260503182332 | 49 | 325 | 5.0 | 11.0 | 0.00 | 0.00 | 0.00 | 46 | 1005.3 |
| 20260503181823 | 49 | 312 | 4.0 | 15.0 | 0.00 | 0.00 | 0.00 | 43 | 1005.3 |
| 20260503181314 | 49 | 309 | 8.0 | 15.0 | 0.00 | 0.00 | 0.00 | 44 | 1005.4 |
| 20260503180821 | 48 | 350 | 4.0 | 15.0 | 0.00 | 0.00 | 0.00 | 47 | 1005.4 |
| 20260503180333 | 48 | 13 | 7.0 | 15.0 | 0.00 | 0.00 | 0.00 | 45 | 1005.4 |
| 20260503175813 | 48 | 344 | 6.0 | 14.0 | 0.00 | 0.00 | 0.00 | 47 | 1005.5 |
| 20260503175401 | 48 | 321 | 8.0 | 14.0 | 0.00 | 0.00 | 0.00 | 44 | 1005.5 |
| 20260503174825 | 48 | 306 | 7.0 | 14.0 | 0.00 | 0.00 | 0.00 | 48 | 1005.5 |
| 20260503174331 | 48 | 312 | 6.0 | 11.0 | 0.00 | 0.00 | 0.00 | 46 | 1005.4 |
| 20260503173816 | 0 | 293 | 327.0 | 5.0 | 0.00 | 0.00 | 0.00 | 1005.4 | |
| 20260503173349 | 0 | 0.0 | 0.0 | 0.00 | 0.00 | 0.00 | 1005.4 | ||
| 20260503172834 | 0 | 0.0 | 0.0 | 0.00 | 0.00 | 0.00 | 1005.3 | ||
| 20260503172317 | 0 | 0.0 | 0.0 | 0.00 | 0.00 | 0.00 | 1005.3 | ||
| 20260503171823 | 0 | 0.0 | 0.0 | 0.00 | 0.00 | 0.00 | 1005.3 | ||
| 20260503171339 | 0 | 0.0 | 0.0 | 0.00 | 0.00 | 0.00 | 1005.3 | ||
| 20260503170813 | 0 | 0.0 | 0.0 | 0.00 | 0.00 | 0.00 | 1005.3 | ||
| 20260503170327 | 48 | 311 | 9.0 | 16.0 | 0.00 | 0.00 | 0.00 | 47 | 1005.3 |
| 20260503150843 | 46 | 315 | 7.0 | 14.0 | 0.00 | 0.13 | 0.00 | 54 | 1005.8 |
| 20260503150336 | 46 | 5 | 5.0 | 12.0 | 0.00 | 0.13 | 0.00 | 55 | 1005.8 |
| 20260503131320 | 45 | 346 | 4.0 | 6.0 | 0.00 | 0.13 | 0.00 | 71 | 1006.3 |
| 20260503130829 | 44 | 345 | 3.0 | 5.0 | 0.00 | 0.13 | 0.00 | 74 | 1006.3 |
| 20260503130402 | 44 | 323 | 3.0 | 7.0 | 0.00 | 0.13 | 0.00 | 74 | 1006.3 |
| 20260503110323 | 38 | 5 | 0.0 | 0.0 | 0.00 | 0.13 | 0.00 | 92 | 1006.2 |
| 20260503090330 | 37 | 5 | 0.0 | 0.0 | 0.00 | 0.14 | 0.00 | 92 | 1006.0 |
| 20260503081317 | 38 | 5 | 0.0 | 2.0 | 0.00 | 0.14 | 0.00 | 92 | 1006.5 |
| 20260503080824 | 38 | 5 | 1.0 | 2.0 | 0.00 | 0.14 | 0.00 | 93 | 1006.5 |
| 20260503080335 | 38 | 5 | 0.0 | 0.0 | 0.00 | 0.14 | 0.00 | 93 | 1006.5 |
| 20260503072814 | 38 | 5 | 0.0 | 1.0 | 0.00 | 0.14 | 0.00 | 93 | 1006.6 |
| 20260503072343 | 38 | 5 | 0.0 | 0.0 | 0.00 | 0.14 | 0.00 | 93 | 1006.6 |
| 20260503071834 | 38 | 5 | 0.0 | 0.0 | 0.00 | 0.14 | 0.00 | 93 | 1006.6 |
| 20260503071344 | 38 | 5 | 0.0 | 0.0 | 0.00 | 0.14 | 0.00 | 93 | 1006.6 |
| 20260503070816 | 38 | 5 | 0.0 | 0.0 | 0.00 | 0.14 | 0.00 | 93 | 1006.6 |
| 20260503070327 | 38 | 5 | 0.0 | 0.0 | 0.00 | 0.14 | 0.00 | 92 | 1006.6 |
| 20260503054830 | 38 | 5 | 0.0 | 0.0 | 0.00 | 0.20 | 0.00 | 92 | 1007.2 |
| 20260503054323 | 38 | 5 | 0.0 | 0.0 | 0.00 | 0.20 | 0.00 | 92 | 1007.4 |
| 20260503053851 | 38 | 5 | 0.0 | 0.0 | 0.00 | 0.20 | 0.00 | 92 | 1007.4 |
| 20260503053323 | 38 | 5 | 0.0 | 0.0 | 0.00 | 0.20 | 0.00 | 92 | 1007.4 |
| 20260503052814 | 38 | 5 | 0.0 | 0.0 | 0.00 | 0.20 | 0.00 | 92 | 1007.4 |
| 20260503052324 | 38 | 5 | 0.0 | 0.0 | 0.00 | 0.20 | 0.00 | 91 | 1007.4 |
| 20260503051838 | 38 | 5 | 0.0 | 0.0 | 0.00 | 0.20 | 0.00 | 91 | 1007.4 |
| 20260503051326 | 38 | 5 | 0.0 | 0.0 | 0.00 | 0.20 | 0.00 | 91 | 1007.4 |
| 20260503050857 | 38 | 5 | 0.0 | 0.0 | 0.00 | 0.20 | 0.00 | 91 | 1007.4 |
| 20260503050312 | 38 | 5 | 0.0 | 0.0 | 0.00 | 0.24 | 0.00 | 91 | 1007.4 |
| 20260503045852 | 38 | 5 | 327.0 | 0.0 | 0.00 | 0.24 | 0.00 | 91 | 1007.5 |
| 20260503045328 | 0 | 0.0 | 0.0 | 0.00 | 0.24 | 0.00 | 1007.5 | ||
| 20260503044814 | 0 | 0.0 | 0.0 | 0.00 | 0.24 | 0.00 | 1007.5 | ||
| 20260503044321 | 0 | 0.0 | 0.0 | 0.00 | 0.24 | 0.00 | 1007.7 |